Simultaneous Nadir Overpasses (SNOs) Predictions

Prediction of SNOs between NOAA-20 and TERRA Satellite Orbit:

Table of predicted SNOs for the next 14.0 days since TLE Epoch: 6/1/2024
Index Date (NOAA-20) Time (NOAA-20) Lat,Lon (NOAA-20) SZA (NOAA-20 ) Date (TERRA) Time (TERRA) Lat,Lon (TERRA) SZA (TERRA ) Distance(km) Time Diff (sec)
1 06/02/2024 21:47:00 72.26,-153.98 49.98 06/02/2024 21:47:55 72.27,-153.93 49.97 1.79 55
2 06/02/2024 22:37:42 -72.17, 13.51 130.13 06/02/2024 22:37:20 -72.16, 13.54 130.14 2.05 22
3 06/05/2024 09:50:02 -72.22,-154.65 130.36 06/05/2024 09:50:38 -72.21,-154.74 130.37 2.99 36
4 06/05/2024 10:40:46 72.12, 12.85 49.54 06/05/2024 10:39:59 72.11, 12.76 49.54 3.28 47
5 06/07/2024 21:02:37 -73.02, 35.62 129.71 06/07/2024 21:03:43 -72.93, 38.22 129.93 85.18 66
6 06/07/2024 21:53:07 72.21,-155.43 49.41 06/07/2024 21:53:15 72.24,-155.39 49.43 2.81 8
7 06/07/2024 22:43:49 -72.12, 12.07 130.69 06/07/2024 22:42:40 -72.14, 12.10 130.67 1.92 69
8 06/10/2024 09:05:27 72.27, 36.39 49.28 06/10/2024 09:06:32 72.28, 36.33 49.28 2.39 65
9 06/10/2024 09:56:09 -72.18,-156.12 130.83 06/10/2024 09:55:57 -72.19,-156.18 130.81 2.38 12
10 06/12/2024 21:08:29 -72.29, 35.58 130.86 06/12/2024 21:09:12 -72.26, 35.60 130.89 2.47 43
11 06/12/2024 21:59:13 72.19,-156.92 49.04 06/12/2024 21:58:32 72.20,-156.84 49.05 3.10 41



Historial Predications of SNOs between NOAA-20 and TERRA
